{"data":{"norad_id":62281,"epoch":"2026-09-21T11:39:18.804384Z","epoch_age_seconds":93057,"freshness":"FRESH","line1":"1 62281U 24237Q   26264.48563431  .00008973  00000+0  33526-3 0  9999","line2":"2 62281  42.9982 190.8425 0000573 343.8627  16.2206 15.27574078101131","mean_motion":15.27574078,"eccentricity":5.73e-5,"inclination_deg":42.9982,"raan_deg":190.8425,"arg_perigee_deg":343.8627,"mean_anomaly_deg":16.2206,"bstar":0.00033526,"rev_number":10113,"period_min":94.267114160862,"perigee_km":482.67368171598,"apogee_km":483.45997567475,"semimajor_km":6861.2038286954,"source":"CELESTRAK","updated_at":"2026-09-22T09:00:49.568568Z"}}